User: anonymous   Login
Location: Stoke Bliss
(52.2667°N, 2.5167°W)
Time: 17:34:55
(UTC+00:00)
Language:

Cosmos 1943 Rocket - Orbit

View from above orbital plane
View from above orbital plane
View from above satellite
View from above satellite

Ground track
Ground track

The orbit data is extracted from the following two-line orbital elements,

1 19120U 88039B   21127.89995404 -.00000028  00000-0  97648-5 0  9992
2 19120  71.0152 202.9482 0021698 175.6633 184.4684 14.19222400707683
Epoch (UTC): 07 May 2021 21:35:56
Eccentricity: 0.0021698
inclination: 71.0152°
perigee height: 812 km
apogee height: 843 km
right ascension of ascending node: 202.9482°
argument of perigee: 175.6633°
revolutions per day: 14.19222400
mean anomaly at epoch: 184.4684°
orbit number at epoch: 70768

The dashed part of the orbit path shows where the satellite is in the earth's shadow,  

DLR